COSMOS 249 DEB *

Satellite information

Favourite Embed

Satellite Type and Status

DEBRISIN ORBIT

Key statistics

Satellite COSMOS 249 DEB * at a glance.

Uptime

20822

Days in orbit

Revolutions

≈ 14.0

Per day

Orbit

LEO

Low Earth Orbit

Inclination

62.7

Latest

Satellite identification and parameters

Extended collection of information and parameters for COSMOS 249 DEB *.

Object identification

Identified? True

Debris? True

Object name: COSMOS 249 DEB *

International designator: 1968-091AE

Object number (NORAD): 3679

Object ID (CCSDS): 3679

Country: COMMONWEALTH OF INDEPENDENT STATES (CIS)

Current information (Y/N): Y

RCS size: SMALL

Orbital parameters

Period: 102.978 minutes

Inclination: 62.749 deg

SMA: 7277.605 km

Apoapsis: 1263.734 km

Periapsis: 535.206 km

RAAN: 300.5129 deg

Eccentricy: 0.05005276

Argument of periapsis: 207.856 deg

Mean anomaly: 149.4854 deg

Mean motion: 13.98363335 rev/day

Mean motion (dot): 0.00004177 rev/day2

B* drag term: 0.0010131588 1/REarth

Two-line elements (TLE)

Creation date: Oct. 23, 2025, 2:46 a.m.

Reference frame: TEME

Reference center: EARTH

Epoch: Oct. 22, 2025, 8:42 p.m. UTC

TLE line 0: 0 COSMOS 249 DEB *

TLE line 1: 1 03679U 68091AE 25295.86315166 .00004177 00000-0 10132-2 0 9996

TLE line 2: 2 03679 62.7490 300.5129 0500528 207.8560 149.4854 13.98363335751218

Live tracking on map

Real-time ground track for satellite COSMOS 249 DEB *.

In-orbit conjunctions

A list of the most updated potential collisions computed for object COSMOS 249 DEB *.

Target Orbit TCA Probability of collision Miss distance Type
CZ-6A DEB LEO 2024-11-09 14:49:11 0.0005637694 125.0 (m) DEBRIS

Associated space launch

The I2P satellites were the first soviet coorbital ASAT system.

COSMOS 249 DEB * was lifted into orbit during the mission ‘Tsiklon-2A | I2P 1’, on board a Tsiklon-2A space rocket.

The launch took place on Oct. 20, 1968, 4:02 a.m. from 90/20.

For more information about the launch, click the button.

Launch to space Tsiklon-2A | I2P 1
Tsiklon-2A | I2P 1

Agency: N/A

Status: Launch Successful

Launch date: Oct. 20, 1968, 4:02 a.m. UTC

Rocket: Tsiklon-2A

Launch pad: 90/20

Location: Baikonur Cosmodrome, Republic of Kazakhstan

...

Latest news about this satellite

There are no fresh news available about this satellite. Check back as we update our databases every day.


Newsletter sign-up

Weekly statistics, charts and insights to help you stay on top of the space industry.